To NAV CANADA Home Page Login to a new session Search on AWWS site Feedback and Comments Disclaimer Vers la page française équivalente Tips FAQ What's new on the site To the Forecasts and Observations / NOTAM section To "File a Flight Plan" website Publications and other links Update of the User's profile FIC Telephone Numbers My Weather Data Folder Route Weather Data Regional Weather Data Local Weather Data To the Forecasts and Observations / NOTAM section
Request Generated 09/24/2016 at 22:31:16 UTC . Weather information available at that time is displayed.

METAR/TAF

NAUJAAT/NU    

LWIS CYUT 242200Z AUTO 12013KT 02/01 A3018=
LWIS CYUT 242100Z AUTO 13012KT 02/00 A3018=
LWIS CYUT 242000Z AUTO 13011KT 02/01 A3017=

*** REMARK        : Forecast period has ended; this was the last TAF issued
*** REMARQUE : La période de prévision est échue; ceci était le dernier TAF qui a été émis
TAF CYUT 241545Z 2416/2420 FCST NOT AVBL DUE NO OBS
RMK NXT FCST WILL BE ISSUED AT 251545Z=
Your time UTC time
Weather data provided by Environment Canada and NAV CANADA